Location: Unspecified
(47.8010°N, 15.0430°E)
Time: 04:54:44
(UTC+00:00)

Daily predictions for brighter satellites

Satellite Brightness Start Highest point End
(mag) Time Altitude Azimuth Time Altitude Azimuth Time Altitude Azimuth
Cosmos 1812 Rocket 4.2 00:01:17 10° N 00:05:41 52° ENE 00:08:06 24° SE
USA 215 4.4 00:05:43 22° SW 00:05:59 22° SW 00:10:56 10° WNW
Helios 1B rocket 3.1 00:02:03 10° N 00:06:00 45° WNW 00:07:17 33° WSW
BREEZE M DEB (TANK) 2.5 00:08:11 47° E 00:08:11 47° E 00:10:50 10° ESE
STARLINK-1198 3.6 00:04:41 10° WNW 00:08:51 83° NNE 00:13:00 10° ESE
ADEOS II 4.4 00:05:58 10° NE 00:09:06 16° E 00:12:14 10° SE
Nadezhda 1 Rocket 3.9 00:04:28 10° N 00:10:41 89° E 00:14:23 26° S
STARLINK-1199 3.5 00:09:39 10° WNW 00:13:49 88° NNE 00:17:59 10° ESE
Cosmos 1455 3.4 00:13:35 10° N 00:17:06 36° ENE 00:19:19 19° SE
Cosmos 1602 Rocket 3.7 00:16:12 36° SSE 00:17:52 67° E 00:22:10 10° NNE
STARLINK-1210 3.5 00:14:37 10° WNW 00:18:48 87° SSW 00:22:57 10° ESE
Resurs 1-4 Rocket 2.7 00:17:22 10° NNE 00:22:31 49° E 00:25:35 23° SSE
BREEZE-M DEB (TANK) 4.0 00:18:58 10° W 00:22:31 40° SSW 00:30:01 10° SE
CZ-2D R/B 2.7 00:17:43 10° NNE 00:22:49 48° E 00:25:49 23° SSE
STARLINK-1219 3.5 00:19:36 10° WNW 00:23:45 83° SSW 00:27:54 10° ESE
Lacrosse 4 Rocket 3.3 00:22:53 10° NNW 00:26:48 31° NE 00:30:37 10° ESE
COSMOS 2455 3.8 00:22:26 15° WSW 00:27:00 42° NW 00:32:43 10° NNE
STARLINK-1211 3.5 00:24:35 10° WNW 00:28:44 78° SSW 00:32:53 10° SE
CZ-4B R/B 4.5 00:24:22 10° NNE 00:29:17 41° E 00:32:38 19° SSE
STARLINK-1338 3.5 00:29:11 46° S 00:29:41 51° SE 00:33:12 10° ENE
STARLINK-52 3.3 00:30:37 33° W 00:31:50 60° NNW 00:35:02 10° ENE
Starlink 7 placeholder 4.3 00:31:45 19° NNW 00:32:05 20° N 00:33:40 10° NE
SL-4 R/B 2.8 00:28:26 10° W 00:33:11 64° NNW 00:37:54 10° ENE
FALCON 9 DEB 3.1 00:32:13 38° WSW 00:33:23 80° NNW 00:36:52 10° ENE
STARLINK-1245 3.5 00:29:34 10° WNW 00:33:43 73° SSW 00:37:50 10° SE
OE (NEXTSAT) 4.2 00:33:06 44° WSW 00:34:00 65° S 00:37:28 10° E
STARLINK-1371 3.4 00:34:09 45° SSW 00:34:53 56° SE 00:38:27 10° ENE
GEOS 3 Rocket 3.8 00:33:21 24° S 00:36:19 50° SW 00:41:28 10° NW
ATLAS 3B R/B 3.5 00:31:05 10° NW 00:36:54 31° WSW 00:39:20 25° SSW
CENTAUR R/B 4.5 00:31:47 10° WNW 00:37:17 20° WSW 00:39:36 17° SW
STARLINK-1341 3.3 00:36:38 44° SSW 00:37:27 58° SSE 00:41:02 10° ENE
Cosmos 990 Rocket 4.1 00:33:05 10° NNW 00:38:23 80° ENE 00:43:11 12° SSE
STARLINK-1233 3.5 00:34:33 10° WNW 00:38:41 68° SSW 00:42:48 10° SE
Cosmos 1697 Rocket 3.6 00:36:06 19° SSE 00:39:34 39° ESE 00:44:47 10° NE
Cosmos 2227 Rocket 2.1 00:34:03 10° NNW 00:39:46 86° WSW 00:45:07 12° SSE
STARLINK-1374 3.3 00:39:08 43° SSW 00:40:04 61° SSE 00:43:39 10° ENE
GP-B 3.9 00:36:01 10° NNE 00:40:21 48° E 00:43:27 18° SSE
STARLINK-1143 4.4 00:36:49 10° WNW 00:40:53 53° NNE 00:44:57 10° E
Cosmos 2084 3.8 00:39:25 27° WSW 00:41:45 64° NW 00:46:13 10° NE
STARLINK-1339 3.3 00:41:39 42° SSW 00:42:40 64° SSE 00:46:17 10° ENE
STARLINK-1204 3.5 00:39:33 10° WNW 00:43:40 63° SW 00:47:45 10° SE
STARLINK-1377 3.2 00:44:09 41° SW 00:45:14 66° SSE 00:48:49 10° ENE
STARLINK-1241 4.4 00:41:49 10° WNW 00:45:54 55° NNE 00:49:58 10° E
NPP 3.8 00:42:02 10° NNE 00:47:26 68° ESE 00:50:58 22° S
Cosmos 1745 Rocket 4.2 00:43:55 25° SSW 00:47:28 57° WNW 00:53:32 10° N
STARLINK-1353 3.2 00:46:42 39° SW 00:47:52 69° SSE 00:51:29 10° ENE
STARLINK-1203 4.3 00:44:07 10° WNW 00:48:16 57° NNE 00:52:25 10° E
STARLINK-1238 3.6 00:44:32 10° WNW 00:48:38 59° SW 00:52:42 10° SE
Meteor 2-10 Rocket 3.4 00:43:28 10° NNW 00:48:48 83° W 00:52:22 20° S
SL-16 R/B 2.5 00:44:34 18° S 00:49:17 75° WSW 00:55:29 10° NNW
STARLINK-1375 3.2 00:49:19 36° SW 00:50:38 72° SSE 00:54:17 10° ENE
STARLINK-1239 4.3 00:46:46 10° WNW 00:50:52 57° NNE 00:54:58 10° E
Cosmos 1656 3.7 00:48:21 26° SSW 00:51:42 83° ESE 00:57:22 10° NNE
STARLINK-1350 3.2 00:51:49 35° SW 00:53:13 75° SSE 00:56:50 10° ENE
STARLINK-1201 3.6 00:49:33 10° WNW 00:53:36 54° SW 00:57:39 10° SE
UNK 3.7 00:50:53 24° S 00:53:37 68° WSW 00:58:13 10° NNW
STARLINK-1320 2.7 00:52:42 41° WSW 00:53:39 85° SSE 00:56:46 10° ENE
Meteor 2-1 Rocket 4.4 00:48:24 10° NNW 00:53:48 56° W 00:57:06 23° SSW
STARLINK-1322 2.7 00:53:00 41° WSW 00:53:58 85° SSE 00:57:06 10° ENE
STARLINK-1324 2.7 00:53:21 41° WSW 00:54:19 86° SSE 00:57:27 10° ENE
STARLINK-1294 2.7 00:53:37 40° WSW 00:54:37 86° SSE 00:57:46 10° ENE
STARLINK-1261 2.7 00:53:59 40° WSW 00:54:59 87° SE 00:58:07 10° ENE
STARLINK-1325 2.7 00:54:18 39° WSW 00:55:19 87° SSE 00:58:27 10° ENE
STARLINK-1333 2.7 00:54:40 39° WSW 00:55:41 88° SSE 00:58:50 10° ENE
STARLINK-1240 4.2 00:51:47 10° WNW 00:55:54 60° NNE 01:00:00 10° E
STARLINK-1352 3.1 00:54:25 33° SW 00:55:55 78° SSE 00:59:32 10° ENE
STARLINK-1334 2.7 00:54:58 39° WSW 00:56:01 88° SSE 00:59:08 10° ENE
STARLINK-1326 2.7 00:55:18 38° WSW 00:56:21 89° SE 00:59:29 10° ENE
STARLINK-1323 2.7 00:55:36 38° WSW 00:56:40 89° SE 00:59:47 10° ENE
Cosmos 1758 Rocket 3.5 00:54:18 26° S 00:56:45 82° E 01:01:09 10° N
STARLINK-1349 2.7 00:55:58 38° WSW 00:57:03 89° SSE 01:00:11 10° ENE
STARLINK-1336 2.8 00:56:16 37° WSW 00:57:22 90° E 01:00:30 10° ENE
STARLINK-1331 2.8 00:56:38 37° WSW 00:57:44 90° NW 01:00:52 10° ENE
STARLINK-1344 2.8 00:56:58 37° WSW 00:58:05 89° NNW 01:01:13 10° ENE
STARLINK-1343 2.8 00:57:14 36° WSW 00:58:22 89° N 01:01:29 10° ENE
STARLINK-1206 3.7 00:54:32 10° WNW 00:58:34 50° SW 01:02:35 10° SE
STARLINK-1368 3.1 00:57:02 31° SW 00:58:38 82° SSE 01:02:16 10° ENE
STARLINK-1346 2.8 00:57:34 36° WSW 00:58:44 88° NNW 01:01:54 10° ENE
STARLINK-1328 2.8 00:57:54 36° WSW 00:59:03 88° NNW 01:02:11 10° ENE
STARLINK-1354 2.8 00:58:12 35° WSW 00:59:22 88° NNW 01:02:30 10° ENE
STARLINK-1347 2.8 00:58:33 35° WSW 00:59:43 87° NW 01:02:51 10° ENE
STARLINK-1357 2.8 00:58:53 35° WSW 01:00:04 87° NNW 01:03:12 10° ENE
Cosmos 1703 3.5 00:57:56 24° S 01:00:12 68° E 01:04:09 10° NNE
STARLINK-1335 2.8 00:59:15 34° WSW 01:00:28 86° NNW 01:03:36 10° ENE
Cosmos 2181 Rocket 4.1 00:54:11 10° N 01:00:39 85° E 01:06:53 11° S
Cosmos 1400 Rocket 4.1 00:56:45 10° N 01:00:40 40° ENE 01:04:35 10° SE
STARLINK-1327 2.8 00:59:30 34° WSW 01:00:43 86° NNW 01:03:52 10° ENE
STARLINK-1216 4.1 00:56:45 10° WNW 01:00:52 63° NNE 01:04:59 10° ESE
STARLINK-1340 2.8 00:59:51 34° WSW 01:01:05 85° NNW 01:04:12 10° ENE
Cosmos 921 Rocket 4.5 00:58:47 17° WSW 01:01:07 26° WNW 01:04:47 10° N
STARLINK-1369 3.2 00:59:39 29° WSW 01:01:21 85° SSE 01:05:00 10° ENE
STARLINK-1356 2.8 01:00:11 33° WSW 01:01:25 85° NNW 01:04:32 10° ENE
SJ 16-02 1.5 00:57:08 10° NNW 01:01:29 55° WSW 01:04:06 22° S
STARLINK-1345 2.8 01:00:30 33° WSW 01:01:45 84° NNW 01:04:53 10° ENE
STARLINK-1355 2.8 01:00:49 33° WSW 01:02:05 84° NNW 01:05:13 10° ENE
STARLINK-1321 2.8 01:01:10 32° WSW 01:02:27 84° NNW 01:05:35 10° ENE
STARLINK-1358 2.8 01:01:28 32° WSW 01:02:46 83° NNW 01:05:53 10° ENE
STARLINK-1332 2.8 01:01:51 32° WSW 01:03:10 83° NNW 01:06:18 10° ENE
STARLINK-1348 2.8 01:02:09 31° WSW 01:03:28 82° NNW 01:06:36 10° ENE
STARLINK-1205 3.8 00:59:33 10° WNW 01:03:32 47° SW 01:07:30 10° SE
STARLINK-1330 2.8 01:02:27 31° WSW 01:03:45 82° NNW 01:06:54 10° ENE
STARLINK-1372 3.2 01:02:17 27° WSW 01:04:07 88° SSE 01:07:45 10° ENE
STARLINK-1363 2.8 01:02:50 31° WSW 01:04:11 81° NNW 01:07:18 10° ENE
STARLINK-1337 2.8 01:03:06 31° WSW 01:04:28 81° NNW 01:07:35 10° ENE
STARLINK-1342 2.8 01:03:25 30° WSW 01:04:47 81° NNW 01:07:55 10° ENE
Cosmos 1626 4.4 01:03:32 11° W 01:05:02 13° WNW 01:06:54 10° NW
STARLINK-1364 2.8 01:03:44 30° WSW 01:05:07 80° NNW 01:08:15 10° ENE
STARLINK-1376 2.9 01:04:05 30° WSW 01:05:29 80° NNW 01:08:38 10° ENE
STARLINK-1360 2.9 01:04:23 29° WSW 01:05:48 79° NNW 01:08:57 10° ENE
STARLINK-1237 4.0 01:01:43 10° WNW 01:05:51 66° NNE 01:09:59 10° ESE
STARLINK-1361 2.9 01:04:42 29° WSW 01:06:08 79° NNW 01:09:15 10° ENE
STARLINK-1367 2.9 01:05:00 29° WSW 01:06:27 79° NNW 01:09:37 10° ENE
STARLINK-1366 2.9 01:05:26 29° WSW 01:06:53 78° NNW 01:10:00 10° ENE
STARLINK-1378 3.2 01:05:01 26° WSW 01:06:59 89° NNW 01:10:39 10° ENE
MOZ.5/SAFIR/RUBIN 5/SL-8 4.4 01:05:09 24° SSW 01:07:17 38° W 01:11:38 10° NNW
Cosmos 1763 Rocket 3.4 01:04:42 23° SSW 01:07:58 86° ESE 01:13:05 10° NNE
ATLAS CENTAUR R/B 3.7 01:05:06 10° WNW 01:08:05 18° NNW 01:10:57 10° NNE
STARLINK-1218 3.9 01:04:32 10° WNW 01:08:30 43° SW 01:12:25 10° SSE
ATLAS 2AS CENTAUR R/B 4.4 01:01:43 10° W 01:08:53 34° NNW 01:15:54 10° NE
STARLINK-1329 3.2 01:07:14 24° WSW 01:09:17 87° NNW 01:12:58 10° ENE
STARLINK-1379 3.2 01:07:35 24° WSW 01:09:38 86° NNW 01:13:18 10° ENE
STARLINK-1202 3.9 01:06:43 10° WNW 01:10:52 70° NNE 01:15:00 10° ESE
IRS-1D 3.9 01:06:16 10° NNE 01:11:36 65° ESE 01:15:52 16° S
STARLINK-1362 3.3 01:10:03 23° WSW 01:12:15 83° NNW 01:15:56 10° ENE
STARLINK-1365 3.3 01:10:12 22° WSW 01:12:26 81° NNW 01:16:08 10° ENE
BREEZE-M DEB (TANK) 2.1 01:13:03 37° S 01:13:16 39° SSE 01:15:41 10° E
STARLINK-1254 4.0 01:09:33 10° WNW 01:13:27 40° SW 01:17:19 10° SSE
FALCON 9 R/B 4.3 01:07:38 16° WSW 01:13:32 40° S 01:36:02 10° ESE
Cosmos 1953 Rocket 3.8 01:10:18 18° S 01:13:35 69° E 01:18:01 10° NNE
STARLINK-1373 3.3 01:12:48 22° WSW 01:15:06 81° NNW 01:18:47 10° ENE
NOSS 7 (H) 4.1 01:15:05 29° SW 01:16:32 82° ESE 01:19:29 10° NE
RESURS DK-1 4.4 01:13:50 10° W 01:16:52 19° NW 01:19:54 10° N
STARLINK-1390 3.3 01:15:27 20° WSW 01:17:51 78° NNW 01:21:32 10° ENE
STARLINK-1231 4.1 01:14:32 10° WNW 01:18:23 37° SW 01:22:12 10° SSE
STARLINK-1246 3.8 01:16:41 10° WNW 01:20:51 77° NNE 01:24:59 10° ESE
AQUA 3.8 01:16:07 10° N 01:20:53 76° WNW 01:24:19 19° SSW
Cosmos 2369 3.8 01:17:27 19° SSW 01:21:38 76° ESE 01:27:18 10° NNE
ERS-2 3.8 01:18:46 10° SE 01:22:07 35° ENE 01:25:29 10° N
ATLAS CENTAUR R/B 2.6 01:20:22 10° WNW 01:23:19 37° SW 01:29:34 10° SSE
STARLINK-1232 4.2 01:19:35 10° WNW 01:23:22 34° SW 01:27:07 10° SSE
STARLINK-1224 3.7 01:21:39 10° WNW 01:25:48 82° NNE 01:29:57 10° ESE
Cosmos 2360 4.5 01:23:15 16° SSW 01:27:48 65° ESE 01:33:28 10° NNE
STARLINK-1208 4.3 01:24:36 10° WNW 01:28:18 32° SW 01:31:59 10° SSE
CRYOSAT 2 4.4 01:24:11 10° N 01:29:08 84° E 01:33:42 12° S
STARLINK-1225 3.6 01:26:38 10° WNW 01:30:48 86° NNE 01:34:57 10° ESE
Cosmos 1980 Rocket 2.7 01:28:17 13° S 01:33:10 55° ESE 01:38:40 10° NE
STARLINK-1271 4.4 01:29:37 10° WNW 01:33:15 29° SW 01:36:51 10° SSE
Cosmos 2285 Rocket 4.0 01:27:17 10° NNW 01:33:37 65° WSW 01:39:51 10° S
STARLINK-1230 3.6 01:31:36 10° WNW 01:35:46 89° SSW 01:39:54 10° ESE
ARIANE 5 R/B 3.2 01:31:04 10° NNE 01:36:01 51° E 01:40:52 10° S
Cosmos 2219 4.4 01:32:06 10° NW 01:36:27 23° WSW 01:39:23 16° SW
STARLINK-1154 4.5 01:34:38 10° WNW 01:38:10 27° SW 01:41:41 10° SSE
STARLINK-1243 3.5 01:36:35 10° WNW 01:40:45 84° SSW 01:44:54 10° ESE
Cosmos 1898 Rocket 4.3 01:36:08 10° NW 01:40:54 34° WSW 01:45:04 13° SSW
ERBS 3.2 01:37:45 10° NW 01:41:01 52° NNE 01:44:18 10° ESE
STARLINK-1236 3.5 01:41:35 10° WNW 01:45:44 79° SSW 01:49:53 10° SE
Uosat 12 SS-18 rocket 4.0 01:41:52 10° NW 01:46:09 74° SW 01:50:40 10° SSE
Cosmos 1937 Rocket 4.0 01:41:34 10° NW 01:46:27 41° WSW 01:51:21 10° S
CZ-4C R/B 2.2 01:42:45 15° SW 01:47:00 79° NW 01:53:08 10° NE
Cosmos 2297 Rocket 3.4 01:42:47 10° NW 01:47:10 24° WSW 01:50:44 13° SSW
ADEOS II 2.1 01:44:09 10° NNE 01:49:26 79° WNW 01:54:31 11° SSW
Cosmos 1455 3.9 01:49:55 10° NW 01:52:25 17° W 01:54:12 13° WSW
Cosmos 2298 Rocket 4.1 01:48:04 10° NNW 01:53:24 89° WSW 01:58:43 10° SSE
Nadezhda 3 Rocket 4.3 01:47:18 10° N 01:53:36 75° E 01:59:55 10° SSE
Cosmos 2082 4.2 01:48:37 10° NW 01:53:51 40° WSW 01:59:02 10° S
Cosmos-2242 4.1 01:50:26 10° NNW 01:54:02 27° W 01:57:01 13° SW
STARLINK-1269 3.5 01:51:31 10° WNW 01:55:39 70° SSW 01:59:46 10° SE
Cosmos 1570 Rocket 4.2 01:51:31 13° SW 01:56:10 62° WNW 02:01:26 10° NNE
SL-08 R/B 3.3 01:51:37 10° S 01:56:16 66° WSW 02:00:54 10° NNW
Cosmos 2221 2.8 01:52:05 10° N 01:56:25 72° E 02:00:46 10° SSE
Meteor 1-28 Rocket 3.2 01:53:55 10° SSE 01:57:42 88° ENE 02:01:30 10° NNW
Cosmos 2263 Rocket 2.8 01:52:50 10° NNW 01:58:27 62° ENE 02:03:57 10° SE
IRS-P3 4.2 01:55:09 10° N 02:00:29 71° WNW 02:05:46 10° SSW
STARLINK-1200 3.6 01:56:32 10° WNW 02:00:39 65° SSW 02:04:44 10° SE
Cosmos 2278 3.8 01:56:39 12° SSW 02:01:57 78° WNW 02:07:39 10° NNE
Resurs 1-4 Rocket 3.4 01:57:41 10° N 02:02:06 28° WNW 02:06:31 10° WSW
CZ-2D R/B 3.4 01:58:14 10° N 02:02:38 28° WNW 02:06:59 10° WSW
Cosmos 2208 Rocket 4.2 01:58:15 12° SW 02:03:05 64° WNW 02:08:24 10° NNE
Cosmos 2058 4.0 02:00:44 10° SSE 02:04:43 45° E 02:08:46 10° NNE
Lacrosse 4 Rocket 2.0 02:01:35 10° NW 02:05:32 35° WSW 02:09:23 10° S
STARLINK-1192 3.6 02:01:32 10° WNW 02:05:38 60° SSW 02:09:42 10° SE
Cosmos 2322 Rocket 4.0 02:01:25 10° SSE 02:06:01 27° ESE 02:10:38 10° NE
Cosmos 1814 Rocket 4.2 02:01:05 11° SSW 02:06:11 68° WNW 02:11:31 10° NNE
STARLINK-1338 4.2 02:03:48 10° W 02:07:16 45° NNW 02:10:45 10° ENE
Cosmos 1892 3.9 02:04:15 10° SSE 02:07:52 42° E 02:11:29 10° NNE
BREEZE-M R/B 2.6 02:04:29 10° W 02:08:15 62° N 02:10:46 10° ENE
IDEFIX/ARIANE 42P 3.3 02:04:16 10° NNE 02:09:28 55° E 02:14:36 10° S
Cosmos 540 Rocket 3.7 02:05:01 11° SW 02:09:53 57° WNW 02:14:58 10° NNE
STARLINK-1244 3.7 02:06:31 10° WNW 02:10:36 56° SW 02:14:39 10° SE
Cosmos 1125 Rocket 3.8 02:05:37 10° NNW 02:10:51 75° ENE 02:16:03 10° SSE
IRIDIUM 104 4.4 02:06:55 10° S 02:12:08 85° E 02:17:23 10° N
COBE Rocket 4.0 02:07:36 10° S 02:12:31 66° W 02:17:36 10° NNW
STARLINK-1371 4.3 02:09:05 10° W 02:12:35 44° NNW 02:16:04 10° ENE
SL-4 R/B 3.1 02:08:39 10° WNW 02:13:23 55° N 02:17:53 10° E
Cosmos 2227 4.3 02:08:12 10° NNW 02:13:58 90° ENE 02:19:45 10° SSE
STARLINK-1341 4.3 02:11:42 10° W 02:15:11 43° NNW 02:18:41 10° ENE
STARLINK-1138 3.7 02:11:30 10° WNW 02:15:32 52° SW 02:19:33 10° SE
STARLINK-1374 4.3 02:14:20 10° W 02:17:49 42° NNW 02:21:18 10° ENE
Cosmos 2084 Rocket 3.5 02:15:15 10° NW 02:19:44 78° SW 02:24:14 10° SE
Cosmos 2074 Rocket 4.4 02:14:00 10° SSW 02:20:06 52° WNW 02:26:16 10° N
STARLINK-1339 4.4 02:16:59 10° W 02:20:28 42° NNW 02:23:57 10° ENE
STARLINK-1143 3.8 02:16:29 10° WNW 02:20:29 48° SW 02:24:28 10° SE
IRIDIUM 114 4.4 02:16:04 10° S 02:21:17 81° W 02:26:33 10° N
Cosmos 2227 Rocket 3.9 02:20:04 10° WNW 02:22:56 14° W 02:25:46 10° SW
STARLINK-1377 4.4 02:19:32 10° W 02:22:57 41° NNW 02:26:24 10° ENE
Cosmos 1697 Rocket 3.5 02:18:13 10° WSW 02:23:31 40° NW 02:28:52 10° NNE
Timation 1 Rocket 4.4 02:19:33 10° NW 02:25:26 61° WSW 02:31:17 10° SSE
STARLINK-1241 3.9 02:21:30 10° WNW 02:25:28 44° SW 02:29:25 10° SE
STARLINK-1353 4.4 02:22:12 10° W 02:25:38 40° NNW 02:29:04 10° ENE
Cosmos 372 Rocket 4.5 02:22:35 10° NW 02:27:19 39° WSW 02:32:04 10° S
USA 229 DEB 4.1 02:20:22 10° NW 02:27:38 80° NE 02:35:16 10° SE
USA 229 4.1 02:20:29 10° NW 02:27:45 80° NE 02:35:22 10° SE
STARLINK-1203 4.0 02:24:02 10° WNW 02:28:02 43° SW 02:32:01 10° SSE
STARLINK-43 3.4 02:24:28 10° SW 02:28:07 70° SSE 02:31:48 10° ENE
STARLINK-1375 4.5 02:25:03 10° W 02:28:31 40° N 02:31:58 10° ENE
STARLINK-1320 4.5 02:26:50 10° WNW 02:29:42 33° N 02:32:35 10° ENE
STARLINK-1239 4.0 02:26:29 10° WNW 02:30:24 41° SW 02:34:18 10° SSE
IRIDIUM 103 4.4 02:25:17 10° SSW 02:30:28 68° W 02:35:41 10° N
NOSS 3-1 (C) 4.2 02:26:21 10° NW 02:33:49 90° SW 02:42:26 10° SE
